User: anonymous   Login
Location: Mentone
(34.5413°N, 85.5351°W)
Time: 11:33:38
(UTC-05:00)
Language:

Cosmos 1703 - Orbit

View from above orbital plane
View from above orbital plane
View from above satellite
View from above satellite

Ground track
Ground track

The orbit data is extracted from the following two-line orbital elements,

1 16262U 85108A   17147.88138986 +.00001344 +00000-0 +80109-4 0  9994
2 16262 082.4800 269.8773 0011531 355.1652 004.9464 15.10333282715571
Epoch (UTC): 27 May 2017 21:09:12
Eccentricity: 0.0011531
inclination: 82.4800°
perigee height: 527 km
apogee height: 543 km
right ascension of ascending node: 269.8773°
argument of perigee: 355.1652°
revolutions per day: 15.10333282
mean anomaly at epoch: 4.9464°
orbit number at epoch: 71557

The dashed part of the orbit path shows where the satellite is in the earth's shadow,  

DLR